This is the latest recevied weather packets stored in our database for station/object AD8AK. If no packets are shown the sender has not sent any weather packets the latest 1 day(s).
| Time | Temp. | Humidity | Pressure | Rain* | Wind** | Luminosity | Snow |
|---|---|---|---|---|---|---|---|
| 1778030361 | 8.89° C | 95% | 1008.8 hPa | 1.27 mm | 0 m/s | - | - |
| 1778030058 | 8.89° C | 95% | 1008.6 hPa | 1.78 mm | 0 m/s | - | - |
| 1778029755 | 8.89° C | 95% | 1008.7 hPa | 1.78 mm | 0 m/s | - | - |
| 1778029454 | 8.89° C | 95% | 1008.7 hPa | 0 mm | 0 m/s | - | - |
| 1778029150 | 8.89° C | 95% | 1008.7 hPa | 1.27 mm | 0 m/s | - | - |
| 1778028848 | 8.89° C | 95% | 1008.7 hPa | 1.27 mm | 0 m/s | - | - |
| 1778028542 | 8.89° C | 95% | 1008.5 hPa | 0 mm | 0 m/s | - | - |
| 1778028241 | 8.89° C | 95% | 1008.7 hPa | 1.78 mm | 0 m/s | - | - |
| 1778027936 | 8.89° C | 95% | 1008.4 hPa | 1.78 mm | 0 m/s | - | - |
| 1778027633 | 8.89° C | 95% | 1008.6 hPa | 1.78 mm | 0 m/s | - | - |
| 1778027329 | 8.89° C | 95% | 1008.3 hPa | 1.78 mm | 0 m/s | - | - |
| 1778027025 | 8.89° C | 95% | 1008.6 hPa | 1.27 mm | 0 m/s | - | - |
| 1778026721 | 8.89° C | 95% | 1008.6 hPa | 1.27 mm | 0 m/s | - | - |
| 1778026418 | 8.89° C | 95% | 1008.5 hPa | 0 mm | 0.45 m/s, 325° | - | - |
| 1778026115 | 9.44° C | 95% | 1008.5 hPa | 1.78 mm | 0 m/s | - | - |
| 1778025813 | 9.44° C | 95% | 1008.5 hPa | 1.78 mm | 0 m/s | - | - |
| 1778025510 | 9.44° C | 95% | 1008.5 hPa | 0 mm | 0 m/s | - | - |
| 1778025207 | 9.44° C | 95% | 1008.3 hPa | 1.27 mm | 0 m/s | - | - |
| 1778024904 | 9.44° C | 94% | 1008.2 hPa | 1.27 mm | 0 m/s | - | - |
| 1778024602 | 9.44° C | 94% | 1008.5 hPa | 1.78 mm | 0 m/s | - | - |
| 1778024299 | 9.44° C | 94% | 1008.5 hPa | 1.78 mm | 0 m/s | - | - |
| 1778023997 | 9.44° C | 94% | 1008.7 hPa | 0 mm | 0 m/s | - | - |
| 1778023694 | 9.44° C | 94% | 1008.7 hPa | 1.27 mm | 0 m/s | - | - |
| 1778023391 | 9.44° C | 94% | 1008.7 hPa | 1.27 mm | 0 m/s | - | - |
| 1778023088 | 9.44° C | 94% | 1008.7 hPa | 0 mm | 0 m/s | - | - |
* Rain latest hour (hover to see other rain measurements)
** Current wind speed in m/s (hover to see current wind gust speed)